[[{"header":{"parameterUnit":"m.s-1","parameterCategory":1,"la1":30.2991,"la2":30.254,"lo1":-89.0895,"lo2":-89.0444,"dy":0.0017,"dx":0.0017,"nx":28,"ny":28,"refTime":"2025-04-09T03:00:00:Z","depth":0,"parameterNumber":2,"parameterNumberName":"U-component_of_WINDS"},"data":[0,0,0,0,0,0,0,0,0,0,0,0,0,0,0,0,0,0,0,0,0,0,0,0,0,0,0,0,0,0,0,0,0,0,0,0,0,0,0,0,0,0,0,0,0,0,0,0,0,0,0,0,0,0,0,0,0,0,1.1101,1.1102,0,1.1157,1.1158,1.1159,1.1199,1.1199,1.1199,1.1199,1.1261,1.1262,1.1263,0,0,0,0,0,0,0,0,0,0,0,0,0,1.1032,1.1033,1.1101,1.1102,1.1102,1.1157,1.1158,1.1159,1.1199,1.1199,1.1199,1.12,1.126,1.1262,1.1263,0,0,0,0,0,0,0,0,0,0,0,0,0,1.1072,1.1033,1.1101,1.1129,1.1132,1.1157,1.1158,1.1159,1.1198,1.1199,1.1199,1.12,1.126,1.1262,1.1264,1.1267,0,0,1.127,1.1271,0,0,0,0,0,0,0,0,1.107,1.1075,1.1124,1.1127,1.113,1.1171,1.1156,1.1195,1.1198,1.1173,1.12,1.12,1.1231,1.1235,1.1245,1.1269,1.1272,1.127,1.1271,1.1272,1.1273,0,0,0,0,0,0,0,1.1067,1.1073,1.1123,1.1125,1.1129,1.114,1.1146,1.1164,1.1199,1.1175,1.1178,1.1184,1.1233,1.1243,1.1247,1.1273,1.127,1.1272,1.1273,1.1274,1.1304,1.1303,0,0,0,0,0,0,1.1059,1.107,1.1122,1.1125,1.1101,1.114,1.1148,1.1158,1.1199,1.1205,1.1184,1.1186,1.1239,1.1244,1.1249,1.1255,1.1272,1.1274,1.1275,1.1304,1.1304,1.1303,0,0,0,0,0,0,1.1058,1.1064,1.1119,1.1098,1.1106,1.1141,1.1152,1.1159,1.1169,1.1205,1.1212,1.1188,1.124,1.1246,1.1262,1.1258,1.1275,1.1277,1.1305,1.1304,1.1303,1.1268,0,0,0,0,0,0,1.1056,1.1063,1.1063,1.1098,1.1107,1.113,1.1152,1.1159,1.1172,1.1175,1.121,1.1217,1.1241,1.1259,1.1264,1.1261,1.1278,1.1305,1.1304,1.1304,1.127,1.1266,1.1264,0,0,0,0,0,1.1053,1.1052,1.1063,1.1069,1.1108,1.113,1.1135,1.1162,1.1171,1.1173,1.1196,1.1216,1.1258,1.126,1.1266,1.1264,1.1306,1.1305,1.1304,1.1271,1.1267,1.1264,0,0,0,0,0,0,1.1017,1.1057,1.107,1.108,1.1101,1.1136,1.1139,1.1156,1.1176,1.1179,1.1212,1.1219,1.1232,1.125,1.1251,1.1269,1.1284,1.1284,1.1257,1.1254,1.125,1.1246,1.128,0,0,0,0,0,1.101,1.1023,1.1057,1.1063,1.1073,1.1104,1.1114,1.1133,1.1156,1.1166,1.1191,1.1214,1.1232,1.1244,1.1263,1.1273,1.1281,1.1274,1.1271,1.1268,1.1268,1.1275,1.1273,1.13,1.13,1.13,0,0,1.0996,1.1019,1.1026,1.1056,1.1075,1.1088,1.1111,1.1125,1.1135,1.1168,1.1184,1.1203,1.1232,1.1244,1.1251,1.126,1.1263,1.1267,1.1265,1.1266,1.1274,1.1271,1.1269,1.13,1.13,1.13,0,0,1.0978,1.0996,1.1003,1.1021,1.1048,1.1069,1.1071,1.1104,1.1117,1.1133,1.1159,1.1173,1.1204,1.1223,1.1237,1.1226,1.1245,1.1231,1.1215,1.1221,1.1219,1.1217,1.1214,1.1212,1.1231,1.1231,1.1231,0,1.0957,1.0978,1.1005,1.1016,1.1029,1.1059,1.1066,1.1083,1.1116,1.1124,1.1133,1.1173,1.1194,1.1212,1.1209,1.1219,1.1223,1.1227,1.1217,1.1215,1.1214,1.1211,1.121,1.1229,1.1229,1.1229,1.123,0,1.0951,1.0965,1.0967,1.0997,1.101,1.102,1.1049,1.106,1.1077,1.1098,1.1114,1.1141,1.1166,1.1171,1.1189,1.1192,1.1196,1.121,1.1226,1.1209,1.1207,1.1206,1.1226,1.1227,1.1228,1.1228,0,0,1.0912,1.0956,1.0957,1.097,1.1003,1.1015,1.1026,1.1049,1.1058,1.108,1.1091,1.1116,1.113,1.1145,1.1165,1.1171,1.1161,1.1185,1.1186,1.118,1.1166,1.1156,1.1154,1.1173,1.1173,1.1173,1.1164,0,1.0899,1.092,1.0944,1.0957,1.0971,1.0999,1.1009,1.1031,1.105,1.1065,1.1087,1.1105,1.112,1.113,1.1137,1.1161,1.1159,1.1162,1.1185,1.1186,1.1177,1.1153,1.1142,1.1132,1.1164,1.1163,1.1163,0,1.0887,1.0906,1.0919,1.095,1.0957,1.0966,1.0989,1.1003,1.1028,1.1042,1.1059,1.1081,1.1095,1.1109,1.113,1.1131,1.1143,1.1156,1.1156,1.116,1.1174,1.1156,1.1129,1.1128,1.1162,1.1162,1.1162,0,1.0857,1.0886,1.0898,1.0909,1.0946,1.0951,1.0967,1.0993,1.1005,1.1026,1.1035,1.1058,1.1071,1.1088,1.1116,1.1123,1.1134,1.115,1.1147,1.1146,1.1148,1.1148,1.1123,1.1155,1.1155,1.1155,1.1155,0,1.084,1.0847,1.0885,1.0893,1.0902,1.0931,1.094,1.0958,1.0981,1.0994,1.102,1.1031,1.1066,1.1082,1.1104,1.1119,1.1124,1.1136,1.1142,1.1134,1.1133,1.1142,1.1144,1.1155,1.1155,1.1155,1.1155,0,1.0809,1.0834,1.0849,1.0882,1.0891,1.0897,1.0926,1.0935,1.0955,1.0971,1.0976,1.1009,1.1029,1.1058,1.1087,1.1102,1.1113,1.1122,1.1104,1.1108,1.1103,1.1103,1.1084,1.1083,1.1115,1.1114,1.1114,0,1.0796,1.0802,1.0836,1.0845,1.086,1.0875,1.0888,1.0917,1.0929,1.0959,1.0964,1.0986,1.1005,1.1036,1.1063,1.1086,1.1096,1.1088,1.11,1.1091,1.1096,1.1096,1.1097,1.1085,1.1084,1.1084,1.1083,0,1.0772,1.0784,1.08,1.0821,1.0835,1.0853,1.0873,1.088,1.0913,1.0926,1.0946,1.0961,1.099,1.1012,1.1038,1.1056,1.1075,1.1079,1.108,1.1072,1.1061,1.1068,1.1097,1.108,1.108,1.108,1.1081,1.1081,1.075,1.0757,1.0781,1.0799,1.0816,1.0834,1.0844,1.0865,1.0882,1.0907,1.0924,1.0943,1.097,1.1006,1.1023,1.104,1.1048,1.1049,1.1049,1.1049,1.1046,1.1058,1.1045,1.1045,1.1045,1.1045,1.1045,0,1.0727,1.0744,1.076,1.0786,1.08,1.0816,1.0838,1.085,1.0866,1.0888,1.0906,1.0929,1.095,1.0979,1.1002,1.101,1.102,1.1015,1.1015,1.1019,1.1037,1.1035,1.1007,1.1007,1.1007,1.1007,1.1007,1.1007,1.0717,1.0729,1.0744,1.0766,1.0784,1.0802,1.0813,1.083,1.0848,1.0872,1.0889,1.0908,1.0933,1.0958,1.0979,1.0987,1.0994,1.0987,1.0998,1.1014,1.1018,1.1021,1.1019,1.0988,1.0988,1.0979,1.0978,1.0978]},{"header":{"parameterUnit":"m.s-1","parameterCategory":1,"la1":30.2991,"la2":30.254,"lo1":-89.0895,"lo2":-89.0444,"dy":0.0017,"dx":0.0017,"nx":28,"ny":28,"refTime":"2025-04-09T03:00:00:Z","depth":0,"parameterNumber":3,"parameterNumberName":"V-component_of_WINDS"},"data":[0,0,0,0,0,0,0,0,0,0,0,0,0,0,0,0,0,0,0,0,0,0,0,0,0,0,0,0,0,0,0,0,0,0,0,0,0,0,0,0,0,0,0,0,0,0,0,0,0,0,0,0,0,0,0,0,0,0,1.514,1.514,0,1.5148,1.5148,1.5148,1.5117,1.5116,1.5115,1.5115,1.512,1.512,1.5121,0,0,0,0,0,0,0,0,0,0,0,0,0,1.5092,1.5093,1.514,1.514,1.514,1.5147,1.5148,1.5148,1.5117,1.5116,1.5115,1.5114,1.5119,1.512,1.5122,0,0,0,0,0,0,0,0,0,0,0,0,0,1.5108,1.5094,1.514,1.5126,1.5125,1.5147,1.5148,1.5148,1.5118,1.5116,1.5115,1.5114,1.5119,1.512,1.5122,1.5157,0,0,1.5126,1.5127,0,0,0,0,0,0,0,0,1.5107,1.511,1.5128,1.5127,1.5126,1.513,1.5133,1.5151,1.5118,1.512,1.5115,1.5113,1.5124,1.5125,1.5129,1.5158,1.5158,1.5126,1.5127,1.5128,1.5128,0,0,0,0,0,0,0,1.5106,1.5109,1.5143,1.5128,1.5127,1.5117,1.5118,1.5136,1.5129,1.512,1.5118,1.5119,1.5123,1.5128,1.5129,1.5158,1.5126,1.5127,1.5128,1.5129,1.5208,1.5209,0,0,0,0,0,0,1.5107,1.5108,1.5143,1.5143,1.5113,1.5119,1.512,1.513,1.5129,1.5128,1.512,1.5118,1.5126,1.5127,1.5129,1.5166,1.5128,1.5129,1.513,1.5207,1.5208,1.521,0,0,0,0,0,0,1.5106,1.5111,1.5142,1.5125,1.5128,1.5121,1.5133,1.5131,1.5136,1.513,1.5128,1.5127,1.5125,1.5127,1.5149,1.5166,1.513,1.5131,1.5205,1.5207,1.5209,1.5244,0,0,0,0,0,0,1.5105,1.5111,1.5126,1.5126,1.5129,1.5165,1.5134,1.5132,1.5139,1.5135,1.5135,1.5134,1.5124,1.5147,1.5151,1.5167,1.5132,1.5204,1.5206,1.5209,1.5241,1.5247,1.5251,0,0,0,0,0,1.5104,1.5137,1.5127,1.5132,1.5149,1.5166,1.5168,1.5157,1.514,1.5154,1.5149,1.5134,1.5164,1.515,1.5153,1.5171,1.5203,1.5206,1.5208,1.5239,1.5246,1.5251,0,0,0,0,0,0,1.514,1.5137,1.5126,1.5161,1.5163,1.5161,1.5179,1.5165,1.5173,1.5169,1.5154,1.5154,1.5178,1.5177,1.5161,1.5202,1.518,1.5184,1.5202,1.5208,1.5213,1.5212,1.5133,0,0,0,0,0,1.5152,1.5168,1.5163,1.5194,1.5195,1.5187,1.5194,1.5184,1.5187,1.5188,1.5185,1.5186,1.5195,1.5202,1.521,1.524,1.5237,1.5254,1.5259,1.5263,1.5266,1.5276,1.5282,1.5219,1.5219,1.5219,0,0,1.5178,1.5177,1.5188,1.5201,1.5202,1.5215,1.5188,1.5205,1.5214,1.519,1.521,1.5207,1.5207,1.5232,1.5243,1.5232,1.5282,1.5267,1.527,1.5271,1.528,1.5285,1.5291,1.5221,1.522,1.522,0,0,1.523,1.5233,1.5256,1.5257,1.5258,1.5251,1.5256,1.5254,1.5251,1.5271,1.5251,1.526,1.5278,1.5277,1.5279,1.5324,1.5308,1.5327,1.5353,1.5363,1.5368,1.5372,1.5385,1.539,1.533,1.533,1.533,0,1.5261,1.5282,1.5269,1.5286,1.5289,1.5267,1.5288,1.5289,1.5293,1.5295,1.5283,1.53,1.5299,1.5321,1.5331,1.5334,1.5337,1.5327,1.5369,1.5373,1.5377,1.5388,1.5393,1.5332,1.5332,1.5331,1.5331,0,1.5317,1.5332,1.535,1.5353,1.5359,1.5378,1.5364,1.5371,1.536,1.5353,1.5369,1.5366,1.5371,1.5376,1.5366,1.5394,1.5387,1.5372,1.535,1.5385,1.5395,1.54,1.5335,1.5334,1.5333,1.5333,0,0,1.5396,1.5388,1.5395,1.5393,1.539,1.54,1.5415,1.542,1.5424,1.5426,1.5435,1.5448,1.5432,1.5434,1.5423,1.5432,1.5462,1.5415,1.5415,1.5421,1.5487,1.5497,1.5503,1.5451,1.5452,1.5453,1.5486,0,1.5444,1.5471,1.5457,1.5485,1.5495,1.5471,1.5483,1.5481,1.5473,1.5479,1.547,1.5477,1.5458,1.5458,1.5466,1.5457,1.5474,1.5454,1.5457,1.5458,1.5457,1.5509,1.552,1.5552,1.549,1.5491,1.5492,0,1.5505,1.5508,1.5536,1.5526,1.5529,1.5541,1.5541,1.5548,1.5542,1.5536,1.5535,1.552,1.553,1.5508,1.5519,1.5506,1.5505,1.55,1.5501,1.55,1.5476,1.5506,1.5563,1.5566,1.5498,1.5498,1.5497,0,1.5555,1.5565,1.5582,1.5582,1.5572,1.558,1.5575,1.5569,1.5571,1.557,1.5569,1.557,1.557,1.5569,1.5552,1.5538,1.5564,1.5542,1.5556,1.5556,1.5562,1.5562,1.5617,1.5565,1.5565,1.5565,1.5565,0,1.5609,1.5626,1.5603,1.5614,1.563,1.5612,1.5629,1.5622,1.5615,1.5621,1.56,1.5606,1.5584,1.5587,1.5574,1.5582,1.5583,1.5575,1.5571,1.5576,1.5577,1.5576,1.5572,1.5566,1.5566,1.5566,1.5566,0,1.5668,1.5654,1.5669,1.5657,1.5654,1.5666,1.5654,1.5661,1.5651,1.5658,1.5658,1.5641,1.5642,1.5625,1.5623,1.5614,1.5627,1.5621,1.5629,1.5626,1.564,1.5638,1.5695,1.5699,1.5647,1.5648,1.5648,0,1.5702,1.5714,1.5702,1.5704,1.5701,1.5705,1.5706,1.5687,1.5687,1.5679,1.5686,1.5685,1.5683,1.5685,1.5671,1.5668,1.5659,1.5679,1.5658,1.5661,1.5655,1.5654,1.5653,1.5683,1.5684,1.5684,1.5685,0,1.5764,1.5755,1.5757,1.5755,1.5756,1.5753,1.575,1.5752,1.573,1.5732,1.5732,1.573,1.5726,1.5724,1.5717,1.571,1.5692,1.5691,1.5693,1.5698,1.5701,1.5696,1.5639,1.569,1.5689,1.5689,1.5689,1.5688,1.5809,1.5817,1.5808,1.5809,1.5804,1.5799,1.5803,1.5792,1.5792,1.5787,1.5775,1.5776,1.5765,1.5754,1.5748,1.5746,1.5736,1.5741,1.5741,1.5742,1.5744,1.5702,1.5745,1.5745,1.5745,1.5745,1.5745,0,1.5867,1.5859,1.586,1.5854,1.5853,1.5837,1.583,1.583,1.5832,1.5823,1.5821,1.5818,1.5814,1.5798,1.5792,1.5794,1.5785,1.5792,1.5791,1.5789,1.5755,1.5752,1.5799,1.5799,1.5799,1.5799,1.5799,1.5799,1.5897,1.5907,1.5896,1.5902,1.5893,1.5894,1.5891,1.5885,1.5877,1.5875,1.5872,1.5862,1.5848,1.584,1.5835,1.583,1.5827,1.5837,1.5829,1.5797,1.5792,1.5787,1.5784,1.5837,1.5837,1.5862,1.5863,1.5863]}]]